Theta_e
311 312 314 314 313 313 313 313 314 315 317 319 319 318 318 318 317 312 307 314 318 322 323 317 317 316 313 309 312 310 296 291 292 292 294 303 304 310 312 310 312 312 314 321 323
311 313 314 315 316 317 315 315 316 316 316 315 316 318 317 318 312 306 313 320 321 323 316 313 311 311 307 306 307 305 297 296 296 294 296 298 305 308 308 308 310 314 319 322 322
311 312 314 316 316 317 317 317 317 316 314 313 314 318 318 317 305 304 316 319 322 322 318 316 314 311 305 305 303 301 299 296 296 297 299 300 301 306 306 305 309 312 318 320 320
310 311 314 315 315 316 317 317 316 316 315 313 313 318 318 311 292 308 318 319 320 321 316 314 311 307 303 300 302 296 297 297 298 298 298 299 302 302 301 303 306 316 320 320 319
309 311 313 314 314 314 315 315 315 314 314 314 314 318 313 300 300 311 316 315 314 315 311 312 309 306 300 300 300 295 296 298 298 298 298 300 299 302 301 306 314 319 319 320 320
309 310 312 313 314 313 315 315 314 314 313 313 317 317 306 295 310 313 311 311 311 311 311 312 311 309 302 299 298 297 296 296 297 296 296 296 297 299 301 307 313 316 317 319 320
308 310 312 313 315 316 315 314 315 314 315 316 317 313 304 300 310 312 311 311 313 313 309 310 311 308 304 299 301 299 295 296 296 296 295 296 294 294 300 307 310 313 314 316 318
308 309 311 312 314 316 314 313 314 316 316 315 317 307 300 311 313 312 311 311 311 313 312 311 311 306 303 303 302 298 298 295 297 295 295 296 294 294 300 305 308 309 311 310 310
308 309 311 312 313 315 314 314 315 316 315 315 308 303 298 313 307 310 309 306 307 308 310 311 309 303 303 299 296 297 292 293 294 296 294 294 293 295 299 300 302 305 308 308 309
307 309 311 312 311 312 315 315 315 313 311 311 308 300 304 301 306 307 308 308 304 304 304 304 302 299 297 298 291 291 290 291 292 295 293 291 292 294 297 298 300 301 303 305 306
307 308 310 312 309 310 306 303 298 297 302 297 297 298 300 303 306 303 304 303 303 300 294 296 295 292 294 297 297 295 292 291 292 295 292 292 293 295 296 296 297 299 300 302 303
306 307 309 310 308 307 302 295 294 295 293 301 300 300 301 302 297 300 304 298 297 292 295 294 290 296 297 297 295 294 291 290 293 294 293 291 291 295 296 295 297 298 298 300 302
306 307 308 309 306 299 295 295 299 300 293 296 300 299 299 301 296 296 299 298 294 292 292 290 291 295 293 291 291 290 290 289 289 291 291 288 287 290 292 295 296 297 298 299 300
305 306 307 308 300 295 294 297 297 300 284 288 294 297 299 298 296 300 300 297 294 291 291 290 294 293 291 290 290 286 291 291 289 286 282 288 280 286 289 290 293 295 296 297 297
304 305 306 304 294 293 295 295 296 292 268 289 292 302 297 295 296 299 300 298 292 291 291 288 290 290 289 289 291 288 291 289 288 285 284 284 281 286 288 288 292 295 296 297 297
304 303 303 296 294 293 294 294 291 277 268 283 290 289 289 292 293 295 296 298 296 292 292 289 292 291 291 291 291 291 289 286 285 283 276 281 281 282 285 289 291 292 294 294 294
302 302 297 295 290 293 292 289 277 270 283 282 284 286 286 286 289 290 289 288 289 285 285 289 288 290 292 289 291 289 284 276 273 274 275 282 281 283 288 291 291 292 292 293 293
301 297 294 292 291 292 290 283 268 271 281 286 285 286 282 284 285 287 286 286 288 288 285 283 281 288 290 288 287 285 284 277 271 273 276 282 278 284 289 290 289 290 291 291 291
297 287 287 290 291 291 287 271 272 276 284 285 283 280 281 285 284 283 282 284 286 287 283 283 282 288 289 290 289 285 283 286 280 274 275 278 281 285 286 287 288 288 288 289 289
285 283 284 289 289 290 281 275 279 283 286 286 280 281 278 282 281 280 280 284 284 287 287 285 280 285 288 290 289 288 290 282 281 270 270 276 278 279 283 286 286 287 288 289 290
283 279 285 288 290 286 275 272 282 286 287 285 282 282 282 282 281 280 280 284 286 285 287 285 283 281 286 284 284 286 284 284 284 281 276 273 276 283 284 285 286 287 289 289 290
281 271 285 288 281 271 278 277 286 285 285 286 285 284 282 283 281 281 281 283 287 286 283 285 283 278 279 285 285 286 284 284 280 277 279 278 278 285 287 287 286 288 288 289 288
277 275 285 286 277 275 277 282 282 284 285 286 284 285 284 283 278 282 283 287 287 285 284 285 276 270 275 280 283 281 283 285 284 283 279 276 279 286 286 289 290 288 289 291 290
277 272 276 276 270 277 278 274 276 283 284 285 285 286 285 282 284 280 283 287 288 288 293 290 281 277 274 277 280 280 282 283 283 279 280 282 283 288 289 286 286 288 288 289 289
275 272 275 274 274 274 279 278 276 276 280 283 283 284 283 279 278 281 284 285 286 289 287 286 277 279 281 281 282 282 282 282 281 281 278 281 281 285 287 288 289 288 288 287 286
274 275 275 272 276 276 276 274 276 279 281 280 275 283 283 280 282 281 284 285 284 284 283 285 276 281 279 282 280 278 282 282 282 282 281 282 281 289 290 287 285 287 286 286 286
281 280 278 277 276 274 275 276 278 281 281 282 281 281 278 282 282 281 282 283 283 281 281 280 278 273 268 276 273 269 276 280 281 281 281 279 284 286 285 286 285 286 286 286 286
Wind_Speed
22 23 22 19 11 9 4 5 8 15 18 12 15 11 12 12 10 2 4 5 3 3 5 1 4 5 8 3 0 3 5 4 6 6 5 4 5 2 1 5 2 1 1 1 13
22 22 23 21 24 10 8 8 9 9 12 19 18 10 10 7 7 9 3 8 3 4 3 4 11 6 5 4 2 5 3 6 1 1 5 3 5 6 4 3 2 2 4 11 12
23 24 23 24 28 16 17 17 21 19 13 14 15 16 7 3 6 4 7 7 4 1 3 3 7 5 5 2 1 1 4 6 3 2 3 4 4 3 9 2 5 9 9 9 8
24 24 23 23 20 16 16 15 15 15 13 11 11 14 7 4 7 2 13 11 7 4 4 3 4 7 4 6 1 8 5 2 3 3 3 3 6 3 1 2 3 6 10 9 11
23 24 24 21 11 10 11 14 14 15 10 11 11 13 4 7 6 8 13 9 6 1 7 4 5 5 5 5 4 6 4 3 8 7 5 5 3 3 2 2 3 9 12 11 11
21 22 22 20 9 2 8 14 13 12 11 8 11 9 3 10 5 12 10 8 5 3 4 8 7 4 5 5 4 3 6 3 8 4 4 3 2 1 2 2 6 9 10 7 10
20 21 21 18 15 9 7 13 14 9 8 10 12 4 12 6 7 9 8 5 1 4 2 1 10 4 6 6 4 3 6 4 6 3 3 1 1 2 1 4 6 7 7 7 7
19 19 19 18 16 9 7 12 8 7 11 5 11 5 6 5 6 10 12 8 1 5 3 4 10 10 3 6 3 4 6 4 4 3 2 1 3 1 3 5 7 7 6 6 6
18 19 18 18 16 8 8 6 4 9 4 4 5 4 5 10 6 8 2 3 6 1 3 2 3 6 3 4 5 5 4 4 1 4 2 2 3 0 2 5 6 7 7 7 8
17 18 17 16 16 12 1 2 1 3 2 3 2 4 4 5 4 4 6 2 4 6 3 5 6 4 3 4 4 4 6 3 3 2 2 2 7 5 5 7 10 10 10 10 10
18 18 17 14 17 10 3 3 4 8 11 6 0 4 4 7 5 3 6 3 1 5 6 5 11 7 2 2 4 7 5 6 3 0 1 2 6 11 7 6 10 10 10 13 15
16 18 18 14 19 8 6 5 4 2 8 8 4 3 3 4 7 18 8 6 7 5 2 9 8 2 5 8 9 6 7 2 1 2 1 4 12 15 4 8 7 12 10 12 7
15 17 16 16 4 8 6 4 5 3 6 6 5 4 6 7 5 11 9 3 7 9 9 8 4 3 5 6 9 4 6 2 3 3 3 7 7 5 2 2 4 7 6 5 9
15 16 14 10 6 2 3 3 3 0 7 7 6 7 8 9 9 2 4 3 7 5 4 7 3 5 5 5 3 4 2 4 4 4 2 5 5 5 5 9 4 6 3 6 8
14 13 8 14 4 4 4 5 3 2 8 5 3 1 4 6 5 8 6 8 5 5 2 1 3 4 5 2 1 3 4 5 3 4 3 6 4 8 6 4 4 6 7 6 7
14 11 0 5 4 2 4 4 1 9 3 3 3 2 4 3 1 5 4 4 1 4 7 3 2 3 3 4 4 6 5 7 5 3 4 3 3 6 1 3 7 5 6 6 8
12 14 6 1 2 4 5 4 8 7 4 2 1 1 3 2 2 3 3 4 2 5 3 4 3 3 3 6 5 5 6 4 6 5 3 2 2 9 5 6 4 8 8 8 7
8 9 6 3 4 3 3 8 8 4 3 1 2 3 4 3 2 3 2 2 2 2 3 4 1 1 3 3 5 3 4 5 3 1 3 3 5 7 4 6 4 5 3 5 8
5 5 4 4 4 1 7 6 8 6 3 6 3 6 4 2 2 3 2 3 2 2 4 4 2 2 5 2 1 1 2 4 6 2 3 2 6 11 3 5 6 8 7 9 8
2 3 4 9 6 4 7 5 4 3 1 1 4 2 2 1 4 3 2 2 4 2 3 2 5 3 4 2 5 2 4 4 3 2 4 4 4 6 3 6 8 8 9 8 6
4 3 4 7 2 7 5 6 4 3 3 3 3 4 2 3 3 2 1 2 2 4 3 2 3 2 0 1 5 2 1 5 3 3 3 2 6 7 2 2 2 3 5 6 5
4 3 3 4 6 2 6 7 1 3 1 2 5 3 4 4 4 3 2 3 4 1 3 2 4 2 1 2 4 3 1 3 4 3 1 0 8 1 8 5 2 5 5 4 3
4 2 3 3 5 1 1 3 3 4 5 4 3 2 1 3 3 1 3 1 2 2 3 4 2 3 7 7 4 2 1 1 2 2 3 2 9 3 6 11 12 10 11 12 11
5 2 5 5 1 9 7 3 3 1 3 2 5 4 5 3 2 5 3 1 1 2 5 4 3 5 5 4 3 4 4 4 2 2 4 14 25 21 13 6 8 9 9 9 9
3 5 4 4 4 4 4 9 8 5 1 2 1 5 9 6 2 5 5 4 2 3 4 4 5 2 1 2 3 3 4 7 6 7 9 12 21 19 14 12 12 8 8 9 8
8 6 1 4 3 7 3 10 12 6 12 7 6 10 7 9 9 10 7 5 5 2 3 2 4 3 2 2 5 4 8 8 13 14 16 17 27 23 14 5 5 7 7 7 8
3 3 4 5 7 6 7 10 12 12 6 6 10 7 3 6 6 4 5 6 3 6 3 4 5 3 5 3 4 7 10 17 11 6 6 13 22 11 15 10 4 6 7 7 5
Wind_Direction
356 354 357 16 14 344 352 347 315 322 96 40 44 98 105 111 120 127 74 20 339 122 42 294 92 101 83 259 208 214 73 150 183 173 159 161 117 24 94 105 69 1 258 193 127
357 358 4 11 16 33 51 329 288 101 91 42 10 30 97 136 126 85 5 315 316 131 72 245 124 116 83 309 286 72 111 177 116 82 147 118 110 141 134 127 110 125 116 125 140
359 360 2 13 17 34 60 77 98 95 76 51 3 349 34 240 104 73 7 27 1 65 84 279 115 95 108 245 269 43 146 169 57 45 108 113 91 118 128 204 197 184 155 151 157
1 0 3 11 24 39 68 79 85 77 69 62 352 346 338 283 104 41 7 13 336 342 126 163 82 100 148 159 99 98 20 138 89 357 92 95 120 91 153 155 275 173 158 158 171
3 359 1 8 45 43 101 106 105 100 103 54 341 346 326 56 48 0 352 355 312 242 205 154 138 121 125 103 79 82 151 38 92 76 73 105 80 142 167 337 125 137 170 172 182
6 0 360 2 23 42 99 109 103 83 69 39 348 338 47 73 312 355 329 328 217 197 198 199 149 134 80 64 56 119 99 110 76 70 53 110 105 84 186 150 140 159 172 180 193
7 1 4 3 13 29 78 91 95 93 84 41 350 357 59 30 328 319 342 307 91 216 207 229 131 96 132 112 156 184 95 85 39 33 49 350 42 249 139 182 168 182 177 193 207
2 4 9 10 21 55 95 84 96 91 63 351 333 1 70 286 311 11 355 360 11 233 157 98 114 106 62 101 70 77 49 89 353 14 321 162 250 5 154 172 212 211 203 202 224
2 4 12 18 10 34 94 124 137 115 166 298 30 45 34 321 340 333 46 324 311 240 154 187 97 97 97 117 73 10 126 105 93 29 351 63 244 134 170 179 231 250 246 230 240
2 9 10 16 15 359 55 145 155 11 351 163 114 66 26 316 257 281 234 218 246 258 156 65 64 89 48 57 168 155 119 65 148 327 37 264 258 243 198 198 223 225 238 247 245
5 5 7 13 8 7 17 17 25 14 30 56 70 101 247 269 204 7 325 1 342 32 79 28 82 93 109 107 98 109 96 123 169 268 231 282 288 277 226 206 234 234 226 234 236
4 0 0 6 40 33 57 66 63 360 69 33 108 334 289 320 15 2 9 54 28 65 61 62 80 103 93 78 91 85 112 71 133 51 105 355 284 272 220 232 220 237 236 237 241
7 5 4 351 39 39 76 54 315 358 102 16 4 356 334 359 33 349 15 26 42 52 52 98 143 108 96 75 88 40 110 118 82 12 45 321 305 332 351 309 280 260 249 241 239
12 358 12 339 40 317 31 343 336 85 78 354 3 352 349 338 27 349 16 52 37 72 53 73 38 111 81 75 81 83 108 93 73 58 324 7 283 324 347 327 324 328 302 267 264
2 356 31 37 148 57 318 335 325 67 70 306 353 276 41 59 342 331 339 16 53 351 106 111 115 105 79 77 74 123 86 76 68 79 54 5 63 276 2 2 8 26 35 352 318
353 6 117 54 36 283 314 310 93 46 120 319 314 96 109 42 71 307 333 40 197 41 43 90 197 75 122 67 58 152 71 53 56 51 41 316 104 291 264 9 310 305 27 355 330
352 16 56 14 178 324 328 36 32 82 292 313 80 51 73 94 94 32 5 17 103 95 21 2 10 0 76 67 28 62 59 3 5 18 204 162 63 248 273 292 263 317 335 335 339
349 15 1 95 299 312 112 48 58 214 249 314 46 63 86 30 22 35 77 118 338 60 120 156 290 93 3 79 162 67 127 137 224 291 278 118 240 248 161 330 2 40 7 2 3
358 348 356 326 355 124 68 57 191 212 179 146 64 73 357 49 102 60 43 180 280 341 125 133 72 23 45 61 77 177 80 136 108 77 54 239 283 305 94 70 40 10 37 21 9
81 67 302 324 333 71 77 170 139 216 152 358 116 144 126 17 56 55 347 325 333 357 334 199 107 360 353 75 25 85 148 76 13 65 289 286 272 244 355 36 3 16 19 4 359
68 61 255 337 309 46 140 217 166 195 183 145 143 113 144 135 97 76 37 10 321 359 12 72 69 326 66 133 165 74 70 54 103 161 211 299 264 212 203 167 68 350 319 326 349
103 37 300 5 61 346 153 175 245 154 301 112 109 96 145 169 129 133 130 217 337 217 117 17 104 99 130 30 29 70 160 143 143 239 284 149 258 108 199 179 183 277 257 338 299
117 200 341 70 145 138 229 135 178 148 183 149 115 119 124 171 72 157 184 171 219 111 146 180 341 58 352 6 39 121 262 188 114 107 178 262 258 201 283 328 9 4 344 333 324
102 76 332 48 77 137 143 208 171 267 157 159 133 134 127 134 343 180 179 281 48 97 52 96 109 153 166 155 155 118 67 67 126 209 236 237 276 264 278 317 340 325 298 304 312
67 229 187 201 260 154 146 158 149 174 257 224 8 215 155 150 102 196 192 165 57 343 49 100 165 143 250 149 136 197 212 223 220 220 223 262 254 283 291 308 293 261 289 310 316
139 147 324 143 125 113 212 210 171 176 157 215 164 194 196 153 177 195 156 182 184 63 104 3 158 125 268 87 100 209 221 224 237 246 261 273 275 274 284 253 292 296 292 286 301
157 84 110 168 146 131 214 177 198 142 228 182 169 128 153 197 130 93 85 72 116 135 122 101 121 93 275 350 358 324 229 221 235 188 204 251 263 304 302 300 289 265 267 272 248